[[{"header":{"parameterUnit":"m.s-1","parameterCategory":1,"la1":30.2991,"la2":30.254,"lo1":-89.0895,"lo2":-89.0444,"dy":0.0017,"dx":0.0017,"nx":28,"ny":28,"refTime":"2025-04-28T09:00:00:Z","depth":0,"parameterNumber":2,"parameterNumberName":"U-component_of_WINDS"},"data":[0,0,0,0,0,0,0,0,0,0,0,0,0,0,0,0,0,0,0,0,0,0,0,0,0,0,0,0,0,0,0,0,0,0,0,0,0,0,0,0,0,0,0,0,0,0,0,0,0,0,0,0,0,0,0,0,0,0,-0.4816,-0.4816,0,-0.4836,-0.4836,-0.4837,-0.4845,-0.4845,-0.4845,-0.4845,-0.4867,-0.4868,-0.4868,0,0,0,0,0,0,0,0,0,0,0,0,0,-0.4787,-0.4787,-0.4816,-0.4816,-0.4816,-0.4836,-0.4836,-0.4837,-0.4845,-0.4845,-0.4845,-0.4845,-0.4867,-0.4868,-0.4868,0,0,0,0,0,0,0,0,0,0,0,0,0,-0.4802,-0.4787,-0.4816,-0.4823,-0.4824,-0.4836,-0.4836,-0.4837,-0.4845,-0.4845,-0.4845,-0.4845,-0.4867,-0.4867,-0.4868,-0.4875,0,0,-0.4871,-0.4872,0,0,0,0,0,0,0,0,-0.4801,-0.4803,-0.4822,-0.4823,-0.4824,-0.4838,-0.4834,-0.4849,-0.4845,-0.4837,-0.4845,-0.4845,-0.4858,-0.4859,-0.4863,-0.4876,-0.4877,-0.4871,-0.4872,-0.4872,-0.4872,0,0,0,0,0,0,0,-0.48,-0.4803,-0.4824,-0.4822,-0.4823,-0.4826,-0.4828,-0.4837,-0.4847,-0.4838,-0.4839,-0.4841,-0.4858,-0.4862,-0.4864,-0.4877,-0.4871,-0.4872,-0.4873,-0.4873,-0.4898,-0.4898,0,0,0,0,0,0,-0.4798,-0.4802,-0.4823,-0.4824,-0.4812,-0.4826,-0.4829,-0.4834,-0.4847,-0.4849,-0.4841,-0.4841,-0.4861,-0.4863,-0.4864,-0.4874,-0.4872,-0.4873,-0.4874,-0.4898,-0.4898,-0.4898,0,0,0,0,0,0,-0.4797,-0.48,-0.4822,-0.4813,-0.4816,-0.4827,-0.4832,-0.4834,-0.4838,-0.485,-0.4852,-0.4843,-0.4861,-0.4863,-0.4872,-0.4875,-0.4873,-0.4874,-0.4897,-0.4898,-0.4898,-0.4892,0,0,0,0,0,0,-0.4796,-0.4799,-0.4801,-0.4813,-0.4817,-0.4829,-0.4832,-0.4834,-0.484,-0.484,-0.4852,-0.4854,-0.4861,-0.4871,-0.4873,-0.4876,-0.4875,-0.4897,-0.4898,-0.4898,-0.4892,-0.4892,-0.4892,0,0,0,0,0,-0.4795,-0.4799,-0.4801,-0.4804,-0.482,-0.483,-0.4832,-0.4839,-0.484,-0.4842,-0.485,-0.4854,-0.4874,-0.4872,-0.4875,-0.4877,-0.4897,-0.4897,-0.4898,-0.4892,-0.4892,-0.4892,0,0,0,0,0,0,-0.4787,-0.4801,-0.4804,-0.4811,-0.4819,-0.4831,-0.4834,-0.4838,-0.4847,-0.4847,-0.4856,-0.4859,-0.4867,-0.4873,-0.4871,-0.4885,-0.4886,-0.4887,-0.4881,-0.4881,-0.4881,-0.4879,-0.4876,0,0,0,0,0,-0.4786,-0.4793,-0.4804,-0.481,-0.4814,-0.4824,-0.4828,-0.4833,-0.4842,-0.4845,-0.4854,-0.4862,-0.4871,-0.4876,-0.4884,-0.4893,-0.4896,-0.4896,-0.4896,-0.4896,-0.4897,-0.4903,-0.4903,-0.4899,-0.4899,-0.4899,0,0,-0.4785,-0.4793,-0.4796,-0.4809,-0.4816,-0.4823,-0.4826,-0.4834,-0.4839,-0.4847,-0.4856,-0.4862,-0.4873,-0.4882,-0.4886,-0.4887,-0.4899,-0.4897,-0.4896,-0.4897,-0.4903,-0.4904,-0.4904,-0.4899,-0.4899,-0.4899,0,0,-0.4786,-0.4792,-0.4798,-0.4805,-0.4815,-0.4821,-0.4823,-0.4834,-0.4839,-0.4848,-0.4854,-0.4862,-0.4876,-0.4883,-0.4889,-0.4893,-0.4898,-0.4896,-0.4896,-0.4901,-0.4902,-0.4902,-0.4905,-0.4905,-0.4896,-0.4896,-0.4896,0,-0.4782,-0.4793,-0.48,-0.4808,-0.4813,-0.482,-0.4827,-0.4833,-0.4846,-0.485,-0.485,-0.4869,-0.4876,-0.4888,-0.4889,-0.4893,-0.4896,-0.4895,-0.4901,-0.4901,-0.4902,-0.4904,-0.4905,-0.4896,-0.4896,-0.4896,-0.4896,0,-0.4789,-0.4796,-0.48,-0.4812,-0.4818,-0.4825,-0.4834,-0.4839,-0.4844,-0.4851,-0.4861,-0.487,-0.4881,-0.4884,-0.4889,-0.4897,-0.4897,-0.4899,-0.49,-0.4902,-0.4905,-0.4906,-0.4896,-0.4896,-0.4896,-0.4896,0,0,-0.4785,-0.4801,-0.4803,-0.4808,-0.4821,-0.4827,-0.4835,-0.4845,-0.485,-0.4858,-0.4866,-0.4878,-0.488,-0.4887,-0.4892,-0.4897,-0.4902,-0.4899,-0.49,-0.49,-0.4912,-0.4911,-0.4912,-0.4905,-0.4905,-0.4905,-0.4912,0,-0.4788,-0.4801,-0.4808,-0.4819,-0.4827,-0.4834,-0.4841,-0.4849,-0.4856,-0.4864,-0.4871,-0.488,-0.4882,-0.4886,-0.4892,-0.49,-0.4904,-0.49,-0.4912,-0.4912,-0.491,-0.4913,-0.4911,-0.4917,-0.4913,-0.4913,-0.4913,0,-0.4792,-0.4801,-0.4812,-0.4825,-0.4828,-0.4834,-0.4845,-0.4852,-0.4862,-0.4867,-0.4875,-0.488,-0.489,-0.489,-0.4903,-0.49,-0.4906,-0.4911,-0.4911,-0.4913,-0.4913,-0.4915,-0.4919,-0.492,-0.4914,-0.4914,-0.4914,0,-0.4789,-0.4804,-0.4813,-0.4817,-0.4832,-0.4836,-0.4842,-0.4852,-0.4859,-0.4868,-0.4873,-0.4883,-0.4889,-0.4897,-0.4906,-0.4906,-0.4919,-0.492,-0.4924,-0.4924,-0.4927,-0.4926,-0.4932,-0.4929,-0.4929,-0.4929,-0.4929,0,-0.4792,-0.4799,-0.4811,-0.4817,-0.4825,-0.4834,-0.4842,-0.4849,-0.4858,-0.4866,-0.4873,-0.488,-0.4891,-0.49,-0.4907,-0.4918,-0.492,-0.4925,-0.4927,-0.4924,-0.4924,-0.4928,-0.4928,-0.493,-0.493,-0.4929,-0.4929,0,-0.479,-0.4798,-0.4809,-0.4821,-0.4825,-0.4831,-0.4842,-0.4848,-0.4855,-0.4865,-0.4868,-0.4879,-0.489,-0.49,-0.4914,-0.4919,-0.493,-0.4932,-0.4926,-0.4928,-0.4931,-0.4931,-0.494,-0.4942,-0.4938,-0.4938,-0.4938,0,-0.4791,-0.4796,-0.481,-0.4815,-0.4821,-0.483,-0.4837,-0.4846,-0.4852,-0.4865,-0.487,-0.4881,-0.4891,-0.4908,-0.4918,-0.493,-0.4932,-0.4935,-0.4934,-0.4932,-0.4933,-0.4933,-0.4934,-0.4935,-0.4935,-0.4935,-0.4935,0,-0.4792,-0.4796,-0.4805,-0.4816,-0.4823,-0.4832,-0.4841,-0.4845,-0.4857,-0.4864,-0.4875,-0.4882,-0.4897,-0.4909,-0.4921,-0.4929,-0.4934,-0.4935,-0.4937,-0.4934,-0.4931,-0.4934,-0.4927,-0.4935,-0.4935,-0.4935,-0.4935,-0.4935,-0.4792,-0.4798,-0.4808,-0.4818,-0.4826,-0.4835,-0.4841,-0.485,-0.4859,-0.4872,-0.4877,-0.4888,-0.49,-0.4917,-0.4925,-0.4934,-0.4935,-0.4938,-0.4938,-0.4939,-0.4939,-0.4929,-0.4937,-0.4937,-0.4937,-0.4937,-0.4937,0,-0.4795,-0.4802,-0.4811,-0.4824,-0.4832,-0.4836,-0.4846,-0.4853,-0.4863,-0.4873,-0.4882,-0.4896,-0.4907,-0.4918,-0.4931,-0.4936,-0.4939,-0.4939,-0.4939,-0.4941,-0.4937,-0.4934,-0.4937,-0.4937,-0.4937,-0.4937,-0.4937,-0.4937,-0.4797,-0.4807,-0.4812,-0.4827,-0.4834,-0.4845,-0.4851,-0.486,-0.4868,-0.4882,-0.4892,-0.4899,-0.491,-0.4924,-0.4935,-0.4938,-0.4942,-0.4942,-0.4946,-0.4941,-0.4941,-0.4941,-0.4939,-0.4943,-0.4943,-0.495,-0.495,-0.495]},{"header":{"parameterUnit":"m.s-1","parameterCategory":1,"la1":30.2991,"la2":30.254,"lo1":-89.0895,"lo2":-89.0444,"dy":0.0017,"dx":0.0017,"nx":28,"ny":28,"refTime":"2025-04-28T09:00:00:Z","depth":0,"parameterNumber":3,"parameterNumberName":"V-component_of_WINDS"},"data":[0,0,0,0,0,0,0,0,0,0,0,0,0,0,0,0,0,0,0,0,0,0,0,0,0,0,0,0,0,0,0,0,0,0,0,0,0,0,0,0,0,0,0,0,0,0,0,0,0,0,0,0,0,0,0,0,0,0,3.9686,3.9686,0,3.9693,3.9693,3.9693,3.9649,3.9648,3.9647,3.9646,3.9652,3.9653,3.9654,0,0,0,0,0,0,0,0,0,0,0,0,0,3.9635,3.9636,3.9686,3.9686,3.9686,3.9693,3.9693,3.9693,3.965,3.9648,3.9647,3.9645,3.9651,3.9653,3.9655,0,0,0,0,0,0,0,0,0,0,0,0,0,3.9651,3.9637,3.9686,3.9666,3.9664,3.9693,3.9693,3.9693,3.965,3.9648,3.9646,3.9645,3.9651,3.9653,3.9655,3.9704,0,0,3.9661,3.9662,0,0,0,0,0,0,0,0,3.965,3.9653,3.9669,3.9667,3.9665,3.9668,3.9677,3.9697,3.965,3.9655,3.9646,3.9644,3.9659,3.966,3.9665,3.9704,3.9704,3.9661,3.9662,3.9663,3.9664,0,0,0,0,0,0,0,3.9649,3.9652,3.9689,3.9669,3.9667,3.9656,3.9656,3.968,3.9667,3.9655,3.9651,3.9653,3.9658,3.9663,3.9665,3.9704,3.9661,3.9663,3.9664,3.9665,3.9782,3.9784,0,0,0,0,0,0,3.9651,3.9652,3.9689,3.9689,3.9653,3.9658,3.9658,3.9669,3.9667,3.9665,3.9654,3.9651,3.9661,3.9663,3.9665,3.9721,3.9663,3.9665,3.9666,3.978,3.9782,3.9784,0,0,0,0,0,0,3.965,3.9655,3.9688,3.967,3.9673,3.9661,3.9673,3.967,3.9676,3.9667,3.9664,3.9663,3.966,3.9662,3.9694,3.9721,3.9666,3.9667,3.9778,3.9781,3.9783,3.9834,0,0,0,0,0,0,3.9649,3.9655,3.9673,3.967,3.9674,3.9718,3.9675,3.9672,3.968,3.9675,3.9674,3.9672,3.9658,3.9691,3.9696,3.9722,3.9669,3.9775,3.9779,3.9782,3.983,3.9838,3.9845,0,0,0,0,0,3.9647,3.9688,3.9675,3.9679,3.9697,3.9719,3.9721,3.9705,3.9682,3.97,3.9694,3.9672,3.9717,3.9695,3.97,3.9727,3.9773,3.9778,3.9782,3.9826,3.9836,3.9845,0,0,0,0,0,0,3.9694,3.9687,3.9672,3.9713,3.9717,3.9712,3.9735,3.9717,3.9727,3.9722,3.9701,3.9702,3.9736,3.9735,3.9711,3.9774,3.9741,3.9747,3.9773,3.9783,3.979,3.9789,3.9671,0,0,0,0,0,3.9709,3.9728,3.972,3.9757,3.976,3.9747,3.9756,3.9743,3.9746,3.9748,3.9744,3.9748,3.9762,3.9773,3.9786,3.983,3.9828,3.9851,3.9858,3.9865,3.9869,3.9891,3.9901,3.9799,3.9799,3.9799,0,0,3.9741,3.9739,3.9752,3.9766,3.9768,3.9787,3.9749,3.9771,3.9785,3.9751,3.978,3.9778,3.9781,3.9818,3.9835,3.9818,3.9897,3.987,3.9876,3.9877,3.9897,3.9906,3.9915,3.9802,3.9801,3.9801,0,0,3.9807,3.9808,3.9838,3.9841,3.9843,3.9835,3.9842,3.9839,3.9836,3.9865,3.984,3.9856,3.9883,3.9885,3.989,3.9957,3.9936,3.9962,4.0002,4.0023,4.0031,4.0038,4.0061,4.0069,3.9967,3.9967,3.9967,0,3.9846,3.9874,3.9856,3.9879,3.9886,3.9856,3.9886,3.9889,3.9896,3.9901,3.9883,3.9915,3.9915,3.9952,3.9968,3.9973,3.998,3.9961,4.0032,4.0039,4.0045,4.0066,4.0075,3.997,3.997,3.9969,3.9969,0,3.992,3.994,3.9964,3.9971,3.998,4.0007,3.9992,4.0004,3.999,3.9983,4.0013,4.0012,4.0024,4.0032,4.0019,4.0067,4.0056,4.0035,4.0002,4.0058,4.0077,4.0085,3.9974,3.9973,3.9972,3.9972,0,0,4.0016,4.0013,4.0022,4.0024,4.0025,4.0039,4.0064,4.0076,4.0085,4.0092,4.0111,4.0134,4.0114,4.012,4.0107,4.0126,4.0177,4.0102,4.0102,4.0115,4.0228,4.0243,4.0253,4.0164,4.0165,4.0167,4.0227,0,4.008,4.0122,4.0106,4.0149,4.0166,4.0139,4.016,4.0163,4.0157,4.017,4.0164,4.0179,4.0153,4.0156,4.0174,4.0167,4.0199,4.0163,4.0181,4.0182,4.018,4.0263,4.0279,4.0336,4.0235,4.0236,4.0237,0,4.016,4.0168,4.0213,4.0209,4.0216,4.0236,4.0244,4.0258,4.026,4.0254,4.026,4.0243,4.0266,4.0234,4.0266,4.0241,4.0248,4.0246,4.0248,4.0248,4.0212,4.0264,4.0354,4.0362,4.0249,4.0248,4.0248,0,4.0223,4.0246,4.0275,4.0278,4.0276,4.029,4.0289,4.0289,4.0297,4.0305,4.0309,4.032,4.0325,4.0334,4.032,4.0298,4.0353,4.032,4.0348,4.0348,4.0359,4.0359,4.0451,4.0366,4.0366,4.0366,4.0366,0,4.0295,4.0323,4.0304,4.0321,4.0352,4.0333,4.0364,4.036,4.036,4.0377,4.0354,4.0369,4.035,4.0364,4.0353,4.038,4.0383,4.0379,4.0375,4.038,4.038,4.0383,4.0378,4.0368,4.0368,4.0367,4.0367,0,4.0371,4.0359,4.0389,4.0383,4.0383,4.0405,4.04,4.0416,4.0409,4.0429,4.0433,4.0421,4.0436,4.0423,4.0438,4.043,4.0466,4.0457,4.0465,4.0462,4.049,4.0487,4.0586,4.0597,4.0507,4.0508,4.0509,0,4.0417,4.0438,4.0434,4.0443,4.0444,4.0459,4.0467,4.045,4.0458,4.0461,4.0477,4.049,4.0499,4.0524,4.0516,4.0527,4.0518,4.0552,4.0519,4.0523,4.0517,4.0515,4.0516,4.0558,4.0559,4.056,4.0561,0,4.0499,4.0492,4.0504,4.0513,4.0522,4.0529,4.0534,4.0543,4.0525,4.0536,4.055,4.0558,4.0572,4.0585,4.0593,4.0592,4.0573,4.0571,4.0578,4.0582,4.0585,4.0582,4.0481,4.0569,4.0568,4.0567,4.0567,4.0567,4.056,4.0577,4.0577,4.059,4.0592,4.0597,4.0611,4.0605,4.0617,4.0627,4.0616,4.0634,4.0634,4.0643,4.0645,4.0658,4.0644,4.0654,4.0656,4.0659,4.0662,4.0584,4.066,4.0659,4.0659,4.0659,4.0659,0,4.064,4.0639,4.0651,4.0658,4.0668,4.065,4.0654,4.0664,4.0679,4.0682,4.0691,4.0707,4.072,4.0713,4.0723,4.0735,4.0727,4.0738,4.0736,4.0736,4.0675,4.0667,4.0745,4.0745,4.0745,4.0745,4.0745,4.0745,4.0683,4.0709,4.0702,4.0729,4.0727,4.0744,4.0747,4.0751,4.0753,4.0772,4.0782,4.0777,4.0776,4.0786,4.0796,4.0793,4.0798,4.0812,4.0807,4.0749,4.0741,4.0733,4.0725,4.0814,4.0814,4.0867,4.0867,4.0867]}]]